WALDBURG Weather Reports


Display with metric or nautical units.
time (UTC)temp
F
wind
direction
speed
MPH
gust
MPH
rain 1hr
in
rain 24hr
in
rain mn
in
humidity
%
barometer
mb
20260507140210 59 288 5.0 0.0 0.00 0.00 0.09 66 1013.2
20260507133210 57 279 7.0 0.0 0.00 0.00 0.09 70 1013.7
20260507130210 56 296 5.0 0.0 0.00 0.00 0.09 74 1013.8
20260507123210 56 252 13.0 0.0 0.00 0.00 0.09 74 1013.7
20260507120211 56 277 14.0 0.0 0.00 0.00 0.09 75 1013.8
20260507113210 55 244 16.0 0.0 0.00 0.00 0.09 74 1013.7
20260507110210 53 269 18.0 0.0 0.00 0.00 0.09 78 1013.9
20260507103216 53 270 14.0 0.0 0.00 0.00 0.09 81 1013.9
20260507100212 52 285 17.0 0.0 0.00 0.00 0.09 85 1013.9
20260507093211 50 262 20.0 0.0 0.00 0.00 0.09 90 1013.8
20260507090211 48 264 12.0 0.0 0.00 0.00 0.09 93 1013.6
20260507083212 48 277 21.0 0.0 0.00 0.00 0.08 92 1013.4
20260507080211 47 274 17.0 0.0 0.00 0.00 0.08 93 1013.2
20260507073212 47 266 19.0 0.0 0.00 0.00 0.08 94 1013.1
20260507070212 46 250 16.0 0.0 0.00 0.00 0.07 95 1012.8
20260507063211 46 254 18.0 0.0 0.00 0.00 0.07 95 1012.6
20260507060211 46 259 12.0 0.0 0.00 0.00 0.06 94 1012.3
20260507053211 46 250 14.0 0.0 0.00 0.00 0.02 94 1012.2
20260507050213 46 266 15.0 0.0 0.00 0.00 0.01 93 1011.8
20260507043211 46 271 16.0 0.0 0.00 0.00 0.00 92 1011.5
20260507040216 46 256 11.0 0.0 0.00 0.00 0.00 92 1011.2
20260507033211 46 267 13.0 0.0 0.00 0.00 0.00 93 1011.1
20260507030211 45 247 11.0 0.0 0.00 0.00 0.00 92 1011.0
20260507023211 46 271 9.0 0.0 0.00 0.00 0.00 92 1011.0
20260507020211 46 284 16.0 0.0 0.00 0.00 0.00 91 1010.9
20260507013212 46 269 20.0 0.0 0.00 0.00 0.00 91 1010.4
20260507010211 46 294 17.0 0.0 0.00 0.00 0.00 92 1010.2
20260507003209 45 274 12.0 0.0 0.00 0.00 0.00 94 1010.2
20260507000209 45 248 5.0 0.0 0.00 0.00 0.00 93 1010.2
20260506233209 45 254 9.0 0.0 0.00 0.00 0.00 93 1010.1
20260506230209 45 266 10.0 0.0 0.00 0.00 0.00 94 1009.8
20260506223209 45 282 9.0 0.0 0.00 0.00 0.00 94 1009.9
20260506220209 45 265 9.0 0.0 0.00 0.00 0.00 94 1009.7
20260506213209 46 248 9.0 0.0 0.00 0.00 0.24 93 1009.8
20260506210210 46 249 10.0 0.0 0.00 0.00 0.24 93 1009.8
20260506203210 47 281 10.0 0.0 0.00 0.00 0.24 91 1009.6
20260506200210 47 294 13.0 0.0 0.00 0.00 0.24 91 1009.4
20260506193215 47 269 16.0 0.0 0.00 0.00 0.24 91 1009.0
20260506190211 47 284 16.0 0.0 0.00 0.00 0.24 91 1008.4
20260506183209 48 225 15.0 0.0 0.00 0.00 0.24 91 1008.1
20260506180216 49 253 9.0 0.0 0.00 0.00 0.24 92 1008.0
20260506173210 48 271 18.0 0.0 0.00 0.00 0.24 91 1007.7
20260506170215 49 256 16.0 0.0 0.00 0.00 0.24 93 1007.5
20260506163210 48 262 15.0 0.0 0.00 0.00 0.24 93 1007.1
20260506160210 48 259 24.0 0.0 0.00 0.00 0.22 93 1007.3
20260506153210 48 239 22.0 0.0 0.00 0.00 0.21 94 1007.2
20260506150210 47 257 32.0 0.0 0.00 0.00 0.21 94 1006.6
20260506143210 48 282 41.0 0.0 0.00 0.00 0.09 91 1006.8